This is the latest recevied weather packets stored in our database for station/object PD0SBH-13. If no packets are shown the sender has not sent any weather packets the latest 10 day(s).
| Time | Temp. | Humidity | Pressure | Rain* | Wind** | Luminosity | Snow |
|---|---|---|---|---|---|---|---|
| 1777667118 | 18.89° C | 40% | 1016.8 hPa | 0 mm | - | - | - |
| 1777666523 | 19.44° C | 39% | 1016.7 hPa | 0 mm | - | - | - |
| 1777665919 | 19.44° C | 38% | 1016.7 hPa | 0 mm | - | - | - |
| 1777665324 | 20° C | 37% | 1016.6 hPa | 0 mm | - | - | - |
| 1777664720 | 20.56° C | 36% | 1016.5 hPa | 0 mm | - | - | - |
| 1777664125 | 21.11° C | 34% | 1016.5 hPa | 0 mm | - | - | - |
| 1777663521 | 22.22° C | 31% | 1016.4 hPa | 0 mm | - | - | - |
| 1777662917 | 22.22° C | 30% | 1016.2 hPa | 0 mm | - | - | - |
| 1777662321 | 22.78° C | 29% | 1016.3 hPa | 0 mm | - | - | - |
| 1777661723 | 23.33° C | 29% | 1016.3 hPa | 0 mm | - | - | - |
| 1777661118 | 23.33° C | 28% | 1016.3 hPa | 0 mm | - | - | - |
| 1777660523 | 23.89° C | 28% | 1016.4 hPa | 0 mm | - | - | - |
| 1777659918 | 24.44° C | 27% | 1016.6 hPa | 0 mm | - | - | - |
| 1777659322 | 25° C | 26% | 1017 hPa | 0 mm | - | - | - |
| 1777658716 | 25.56° C | 24% | 1016.9 hPa | 0 mm | - | - | - |
| 1777658119 | 26.11° C | 24% | 1016.4 hPa | 0 mm | - | - | - |
| 1777657516 | 26.11° C | 24% | 1016.4 hPa | 0 mm | - | - | - |
| 1777656921 | 26.11° C | 23% | 1016.6 hPa | 0 mm | - | - | - |
| 1777656326 | 26.67° C | 22% | 1016.6 hPa | 0 mm | - | - | - |
| 1777655720 | 27.22° C | 22% | 1016.6 hPa | 0 mm | - | - | - |
| 1777655125 | 27.22° C | 22% | 1016.6 hPa | 0 mm | - | - | - |
| 1777654519 | 27.22° C | 21% | 1016.7 hPa | 0 mm | - | - | - |
| 1777653925 | 27.78° C | 21% | 1016.7 hPa | 0 mm | - | - | - |
| 1777653319 | 27.78° C | 21% | 1016.8 hPa | 0 mm | - | - | - |
| 1777652724 | 27.78° C | 21% | 1016.8 hPa | 0 mm | - | - | - |
* Rain latest hour (hover to see other rain measurements)
** Current wind speed in m/s (hover to see current wind gust speed)